Location: Spring Creek
(38.2870°N, 100.2160°W)
Time: 23:43:42
(UTC+00:00)

NOSS 3-1 (A) - Pass Details

Date: 08 May 2021
Orbit: 733 x 1479 km, 63.4° (Epoch: 01 May)

Event Time Altitude Azimuth Distance (km) Brightness Sun altitude
Rises 01:57:46 0° 326° (NW) 4,035 7.9 -4.3°
Reaches altitude 10° 02:00:19 10° 327° (NNW) 3,167 7.3 -4.8°
Maximum altitude 02:08:11 89° 239° (WSW) 1,363 4.3 -6.1°
Drops below altitude 10° 02:17:08 10° 150° (SSE) 3,575 5.9 -7.7°
Enters shadow 02:19:20 - 150° (SSE) 4,296 6.3 -8.1°
